Tracking 33198 objects as of 13-Feb-2026
HD Live streaming from Space Station
objects crossing your sky now

CZ-4B DEB

Track CZ-4B DEB now!
10-day predictions


NORAD ID: 29538
Int'l Code: 2006-015E
Perigee: 485.9 km
Apogee: 556.6 km
Inclination: 98.1 °
Period: 94.9 minutes
Semi major axis: 6892 km
RCS: 0.0184 m2 (small)
Launch date: April 26, 2006
Source: People's Republic of China (PRC)
Launch site: Taiyaun Space Center, China (TSC)

Note: This is SATELLITE DEBRIS
Your satellite tracking list
Your tracking list is empty




NASA's NSSDC Master Catalog

Two Line Element Set (TLE):
1 29538U 06015E   26043.81737540  .00046260  00000-0  22383-2 0  9997
2 29538  98.0645 175.1215 0051291 149.4532 210.9705 15.17254033 50098
Source of the keplerian elements: AFSPC